Burlington, IA

11:43 PM CST on November 17, 2017 (GMT -0600)
Burlington Regional

Weather History for KBRL - August, 2013

Change the Weather History Date:

Friday, August 2, 2013

  Actual Average Record
Temperature  
Mean Temperature 76 °F 76 °F  
Max Temperature 84 °F 86 °F 102 °F (1947)
Min Temperature 68 °F 66 °F 52 °F (1907)
Degree Days  
Heating Degree Days 0 0  
Month to date heating degree days 0 0  
Since 1 June heating degree days 23 14  
Since 1 July heating degree days 8 1  
Cooling Degree Days 11 11  
Month to date cooling degree days 18 22  
Year to date cooling degree days 622 751  
Since 1 June cooling degree days 523 648  
Growing Degree Days 26 (Base 50)    
Moisture  
Dew Point 67 °F    
Average Humidity 76    
Maximum Humidity 93    
Minimum Humidity 58    
Precipitation  
Precipitation T in 0.14 in 0.78 in (2001)
Month to date precipitation T 0.27  
Year to date precipitation 27.06 23.25  
Sea Level Pressure  
Sea Level Pressure 29.92 in    
Wind  
Wind Speed 6 mph (SW)    
Max Wind Speed 14 mph    
Max Gust Speed 17 mph    
Visibility 9 miles    
Events      
T = Trace of Precipitation, MM = Missing Value Source: NWS Daily Summary

Daily Weather History Graph

Daily Weather History Graph

Search for Another Location

Airport or City:

Trip Planner

Search our weather history database for the weather conditions in past years. The results will help you decide how hot, cold, wet, or windy it might be!

Date:

Astronomy

Aug. 02, 2013 Rise Set
Actual Time 6:02 AM CDT 8:18 PM CDT
Civil Twilight 5:31 AM CDT 8:49 PM CDT
Nautical Twilight 4:53 AM CDT 9:26 PM CDT
Astronomical Twilight 4:12 AM CDT 10:08 PM CDT
Moon 2:23 AM CDT (8/2) 5:16 PM CDT (8/2)
Length of Visible Light 15h 17m
Length of Day
14h 16m
Waning Crescent, 15% of the Moon is Illuminated
Aug 2
Waning Crescent
Aug 6
New
Aug 14
First Quarter
Aug 20
Full
Aug 28
Last Quarter

Hourly Weather History & Observations

Time (CDT) Temp. Heat Index Dew Point Humidity Pressure Visibility Wind Dir Wind Speed Gust Speed Precip Events Conditions
12:53 AM 69.1 °F - 64.0 °F 84% 29.93 in 10.0 mi SSW 5.8 mph - N/A   Clear
1:53 AM 69.1 °F - 64.0 °F 84% 29.91 in 10.0 mi South 4.6 mph - N/A   Mostly Cloudy
2:53 AM 70.0 °F - 64.0 °F 81% 29.91 in 10.0 mi SSW 5.8 mph - N/A   Overcast
3:53 AM 69.1 °F - 64.0 °F 84% 29.90 in 10.0 mi SSW 6.9 mph - N/A   Mostly Cloudy
4:53 AM 69.1 °F - 64.0 °F 84% 29.91 in 10.0 mi SSW 6.9 mph - N/A   Clear
5:53 AM 69.1 °F - 64.0 °F 84% 29.91 in 10.0 mi SW 6.9 mph - N/A   Scattered Clouds
6:53 AM 69.1 °F - 64.9 °F 87% 29.91 in 10.0 mi SW 5.8 mph - N/A   Mostly Cloudy
7:53 AM 71.1 °F - 66.0 °F 84% 29.92 in 9.0 mi SW 5.8 mph - N/A   Mostly Cloudy
8:53 AM 73.0 °F - 66.9 °F 81% 29.92 in 10.0 mi WSW 4.6 mph - N/A   Mostly Cloudy
9:53 AM 77.0 °F - 66.9 °F 71% 29.92 in 10.0 mi West 5.8 mph - N/A   Clear
10:53 AM 80.1 °F 82.3 °F 66.9 °F 64% 29.92 in 10.0 mi West 4.6 mph - N/A   Clear
11:53 AM 81.0 °F 83.0 °F 66.0 °F 60% 29.92 in 9.0 mi SW 4.6 mph - N/A   Clear
12:53 PM 82.0 °F 84.9 °F 68.0 °F 62% 29.91 in 10.0 mi SSW 10.4 mph - N/A   Partly Cloudy
1:53 PM 82.9 °F 85.4 °F 66.9 °F 58% 29.91 in 10.0 mi SSW 5.8 mph - N/A   Scattered Clouds
2:53 PM 82.9 °F 85.8 °F 68.0 °F 60% 29.89 in 9.0 mi SW 8.1 mph - N/A   Mostly Cloudy
3:53 PM 82.9 °F 85.4 °F 66.9 °F 58% 29.88 in 10.0 mi South 5.8 mph - N/A   Scattered Clouds
4:53 PM 84.0 °F 87.0 °F 68.0 °F 58% 29.87 in 10.0 mi South 6.9 mph - N/A   Partly Cloudy
5:53 PM 82.9 °F 87.0 °F 70.0 °F 65% 29.88 in 10.0 mi SW 6.9 mph - N/A   Scattered Clouds
6:53 PM 82.0 °F 85.9 °F 70.0 °F 67% 29.88 in 9.0 mi WSW 5.8 mph - N/A   Clear
7:43 PM 78.8 °F - 71.6 °F 78% 29.92 in 1.5 mi Variable 3.5 mph - N/A   Haze
7:53 PM 77.0 °F - 70.0 °F 79% 29.91 in 4.0 mi NNW 4.6 mph - N/A   Haze
8:53 PM 73.9 °F - 71.1 °F 91% 29.91 in 10.0 mi SSW 4.6 mph - 0.00 in   Overcast
9:50 PM 75.2 °F - 71.6 °F 89% 29.95 in 10.0 mi Calm Calm - N/A   Overcast
9:53 PM 75.0 °F - 71.1 °F 87% 29.94 in 10.0 mi Calm Calm - N/A   Overcast
10:06 PM 75.2 °F - 69.8 °F 83% 29.95 in 10.0 mi NNE 8.1 mph - N/A   Overcast
10:53 PM 73.0 °F - 64.9 °F 76% 29.96 in 10.0 mi NE 9.2 mph - N/A   Overcast
11:53 PM 71.1 °F - 60.1 °F 68% 29.98 in 10.0 mi NNE 11.5 mph - N/A   Mostly Cloudy